CAPE
0 0 0 0 0 0 0 0 0 0 0 0 0 0 0 0 0 0 0 0 0 0 0 0 0 0 0 0 0 0 0 0 0 0 0 0 0 0 0 0 0 0 0 0
0 0 0 0 0 0 0 0 0 0 0 0 0 0 0 0 0 0 0 0 0 0 0 0 0 0 0 0 0 0 0 0 0 0 0 0 0 0 0 0 0 0 0 0
0 0 0 0 0 0 0 0 0 0 0 0 0 0 0 0 0 0 0 0 0 0 0 0 0 0 0 0 0 0 0 0 0 0 0 0 0 0 0 0 0 0 0 0
0 0 0 0 0 0 0 0 0 0 0 0 0 0 0 0 0 0 0 0 0 0 0 0 0 0 0 0 0 0 0 0 0 0 0 0 0 0 0 0 0 0 0 0
0 0 0 0 0 0 0 0 0 0 0 0 0 0 0 0 0 0 0 0 0 0 0 0 0 0 0 0 0 0 0 0 0 0 0 0 0 0 0 0 0 0 0 0
0 0 0 0 0 0 0 0 0 0 0 0 0 0 0 0 0 0 0 0 0 0 0 0 0 0 0 0 0 0 0 0 0 0 0 0 0 0 0 0 0 0 0 0
0 0 0 0 0 0 0 0 0 0 0 0 0 0 0 0 0 0 0 0 0 0 0 0 0 0 0 0 0 0 0 0 0 0 0 0 0 0 0 0 0 0 0 0
0 0 0 0 0 0 0 0 0 0 0 0 0 0 0 0 0 0 0 0 0 0 0 0 0 0 0 0 0 0 0 0 0 0 0 0 0 0 0 0 0 0 0 0
0 0 0 0 0 0 0 0 0 0 0 0 0 0 0 0 0 0 0 0 0 0 0 0 0 0 0 0 0 0 0 0 0 0 0 0 0 0 0 0 0 0 0 0
0 0 0 0 0 0 0 0 0 0 0 0 0 0 0 0 0 0 0 0 0 0 0 0 0 0 0 0 0 0 0 0 0 0 0 0 0 0 0 0 0 0 0 0
0 0 0 0 0 0 0 0 0 0 0 0 0 0 0 0 0 0 0 0 0 0 0 0 0 0 0 0 0 0 0 0 0 0 0 0 0 0 0 0 0 0 0 0
0 0 0 0 0 0 0 0 0 0 0 0 0 0 0 0 0 0 0 0 0 0 0 0 0 0 0 0 0 0 0 0 0 0 0 0 0 0 0 0 0 0 0 0
0 0 0 0 0 0 0 0 0 0 0 0 0 0 0 0 0 0 0 0 0 0 0 0 0 0 0 0 0 0 0 0 0 0 0 0 0 0 0 0 0 0 0 0
0 0 0 0 0 0 0 0 0 0 0 0 0 0 0 0 0 0 0 0 0 0 0 0 0 0 0 0 0 0 0 0 0 0 0 0 0 0 0 0 0 0 0 0
0 0 0 0 0 0 0 0 0 0 0 0 0 0 0 0 0 0 0 0 0 0 0 0 0 0 0 0 0 0 0 0 0 0 0 0 0 0 0 0 0 0 0 0
0 0 0 0 0 0 0 0 0 0 0 0 0 0 0 0 0 0 0 0 0 0 0 0 0 0 0 0 0 0 0 0 0 0 0 0 0 0 0 0 0 0 0 0
0 0 0 0 0 0 0 0 0 0 0 0 0 0 0 0 0 0 0 0 0 0 0 0 0 0 0 0 0 0 0 0 0 0 0 0 0 0 0 0 0 0 0 0
0 0 0 0 0 0 0 0 0 0 0 0 0 0 0 0 0 0 0 0 0 0 0 0 0 0 0 0 0 0 0 0 0 0 0 0 0 0 0 0 0 0 0 0
0 0 0 0 0 0 0 0 0 0 0 0 0 0 1 0 0 0 0 0 0 0 0 0 0 0 0 0 0 0 0 0 0 0 0 0 0 0 0 0 0 0 0 0
0 0 0 0 0 0 0 0 0 0 0 0 0 0 1 0 0 0 0 0 0 0 0 0 0 0 0 0 0 0 0 0 0 0 0 0 0 0 0 0 0 0 0 0
0 0 0 0 0 0 0 0 0 0 0 0 0 0 0 0 0 0 0 0 0 0 0 0 0 0 0 0 0 0 0 0 0 0 0 0 0 0 0 0 0 0 0 0
0 0 0 0 0 0 0 0 0 0 0 0 0 0 0 0 0 0 0 0 0 0 0 0 0 0 0 0 0 0 0 0 0 0 0 0 0 0 0 0 0 0 0 0
0 0 0 0 0 0 0 0 0 0 0 0 0 0 0 0 0 0 0 0 0 0 0 0 0 0 0 0 0 0 0 0 0 0 0 0 0 0 0 0 0 0 0 0
0 0 0 0 0 0 0 0 0 0 0 0 0 0 0 0 0 0 0 0 0 0 0 0 0 0 0 0 0 0 0 0 0 0 0 0 0 0 0 0 0 0 0 0
0 0 0 0 0 0 0 0 0 0 0 0 0 0 0 0 0 0 0 0 0 0 0 0 0 0 0 0 0 0 0 0 0 0 0 0 0 0 0 0 0 0 0 0
0 0 0 0 0 0 0 0 0 0 0 0 0 0 0 0 0 0 0 0 0 0 0 0 0 0 0 0 0 0 0 0 0 0 0 0 0 0 0 0 0 0 0 0
CIN
0 0 0 0 0 0 0 0 0 0 0 0 0 0 0 0 0 0 0 0 0 0 0 0 0 0 0 0 0 0 0 0 0 0 0 0 0 0 0 0 0 0 0 0
0 0 0 0 0 0 0 0 0 0 0 0 0 0 0 0 0 0 0 0 0 0 0 0 0 0 0 0 0 0 0 0 0 0 0 0 0 0 0 0 0 0 0 0
0 0 0 0 0 0 0 0 0 0 0 0 0 0 0 0 0 0 0 0 0 0 0 0 0 0 0 0 0 0 0 0 0 0 0 0 0 0 0 0 0 0 0 0
0 0 0 0 0 0 0 0 0 0 0 0 0 0 0 0 0 0 0 0 0 0 0 0 0 0 0 0 0 0 0 0 0 0 0 0 0 0 0 0 0 0 0 0
0 0 0 0 0 0 0 0 0 0 0 0 0 0 0 0 0 0 0 0 0 0 0 0 0 0 0 0 0 0 0 0 0 0 0 0 0 0 0 0 0 0 0 0
0 0 0 0 0 0 0 0 0 0 0 0 0 0 0 0 0 0 0 0 0 0 0 0 0 0 0 0 0 0 0 0 0 0 0 0 0 0 0 0 0 0 0 0
0 0 0 0 0 0 0 0 0 0 0 0 0 0 0 0 0 0 0 0 0 0 0 0 0 0 0 0 0 0 0 0 0 0 0 0 0 0 0 0 0 0 0 0
0 0 0 0 0 0 0 0 0 0 0 0 0 0 0 0 0 0 0 0 0 0 0 0 0 0 0 0 0 0 0 0 0 0 0 0 0 0 0 0 0 0 0 0
0 0 0 0 0 0 0 0 0 0 0 0 0 0 0 0 0 0 0 0 0 0 0 0 0 0 0 0 0 0 0 0 0 0 0 0 0 0 0 0 0 0 0 0
0 0 0 0 0 0 0 0 0 0 0 0 0 0 0 0 0 0 0 0 0 0 0 0 0 0 0 0 0 0 0 0 0 0 0 0 0 0 0 0 0 0 0 0
0 0 0 0 0 0 0 0 0 0 0 0 0 0 0 0 0 0 0 0 0 0 0 0 0 0 0 0 0 0 0 0 0 0 0 0 0 0 0 0 0 0 0 0
0 0 0 0 0 0 0 0 0 0 0 0 0 0 0 0 0 0 0 0 0 0 0 0 0 0 0 0 0 0 0 0 0 0 0 0 0 0 0 0 0 0 0 0
0 0 0 0 0 0 0 0 0 0 0 0 0 0 0 0 0 0 0 0 0 0 0 0 0 0 0 0 0 0 0 0 0 0 0 0 0 0 0 0 0 0 0 0
0 0 0 0 0 0 0 0 0 0 0 0 0 0 0 0 0 0 0 0 0 0 0 0 0 0 0 0 0 0 0 0 0 0 0 0 0 0 0 0 0 0 0 0
0 0 0 0 0 0 0 0 0 0 0 0 0 0 0 0 0 0 0 0 0 0 0 0 0 0 0 0 0 0 0 0 0 0 0 0 0 0 0 0 0 0 0 0
0 0 0 0 0 0 0 0 0 0 0 0 0 0 0 0 0 0 0 0 0 0 0 0 0 0 0 0 0 0 0 0 0 0 0 0 0 0 0 0 0 0 0 0
0 0 0 0 0 0 0 0 0 0 0 0 0 0 0 0 0 0 0 0 0 0 0 0 0 0 0 0 0 0 0 0 0 0 0 0 0 0 0 0 0 0 0 0
0 0 0 0 0 0 0 0 0 0 0 0 0 0 0 0 0 0 0 0 0 0 0 0 0 0 0 0 0 0 0 0 0 0 0 0 0 0 0 0 0 0 0 0
0 0 0 0 0 0 0 0 0 0 0 0 0 0 0 0 0 0 0 0 0 0 0 0 0 0 0 0 0 0 0 0 0 0 0 0 0 0 0 0 0 0 0 0
0 0 0 0 0 0 0 0 0 0 0 0 0 0 0 0 0 0 0 0 0 0 0 0 0 0 0 0 0 0 0 0 0 0 0 0 0 0 0 0 0 0 0 0
0 0 0 0 0 0 0 0 0 0 0 0 0 0 0 0 0 0 0 0 0 0 0 0 0 0 0 0 0 0 0 0 0 0 0 0 0 0 0 0 0 0 0 0
0 0 0 0 0 0 0 0 0 0 0 0 0 0 0 0 0 0 0 0 0 0 0 0 0 0 0 0 0 0 0 0 0 0 0 0 0 0 0 0 0 0 0 0
0 0 0 0 0 0 0 0 0 0 0 0 0 0 0 0 0 0 0 0 0 0 0 0 0 0 0 0 0 0 0 0 0 0 0 0 0 0 0 0 0 0 0 0
0 0 0 0 0 0 0 0 0 0 0 0 0 0 0 0 0 0 0 0 0 0 0 0 0 0 0 0 0 0 0 0 0 0 0 0 0 0 0 0 0 0 0 0
0 0 0 0 0 0 0 0 0 0 0 0 0 0 0 0 0 0 0 0 0 0 0 0 0 0 0 0 0 0 0 0 0 0 0 0 0 0 0 0 0 0 0 0
0 0 0 0 0 0 0 0 0 0 0 0 0 0 0 0 0 0 0 0 0 0 0 0 0 0 0 0 0 0 0 0 0 0 0 0 0 0 0 0 0 0 0 0
Wind_Speed
3 5 10 19 7 5 5 4 5 3 3 4 8 5 8 8 5 8 9 12 13 16 14 12 13 14 15 13 13 14 9 7 8 4 4 4 4 2 2 3 6 6 6 6
3 9 16 8 6 6 3 3 4 2 2 4 2 11 5 8 10 13 16 14 15 13 13 14 15 15 16 16 15 14 11 10 8 6 3 3 4 2 2 2 4 6 7 6
10 6 11 7 6 8 6 9 6 5 3 1 4 8 5 8 6 7 11 16 15 20 19 17 17 18 17 17 17 15 13 12 8 7 5 4 4 4 3 1 2 4 7 6
5 5 7 7 9 10 8 8 6 6 5 5 5 7 6 7 9 9 15 15 17 17 18 19 18 18 19 17 17 16 14 12 9 9 6 10 5 5 4 3 3 4 6 7
9 5 7 5 8 7 7 6 8 5 5 4 1 3 10 3 9 12 14 19 20 20 21 21 20 18 17 19 16 15 15 12 9 9 8 8 6 3 4 3 6 4 4 6
5 1 2 7 3 6 9 7 8 6 4 2 8 8 6 8 10 7 7 11 17 18 18 17 18 14 16 16 16 15 16 13 10 10 9 10 10 7 6 5 5 4 3 4
1 1 2 2 6 4 5 8 2 4 2 7 2 4 14 8 8 7 14 18 13 15 17 16 19 17 17 19 18 16 17 13 11 10 10 8 9 8 10 8 6 6 4 3
8 4 8 4 5 10 6 9 9 9 6 4 4 9 10 6 4 7 8 8 10 10 14 16 18 17 18 19 19 17 17 15 13 11 9 6 7 6 6 7 5 4 4 4
7 5 1 3 1 4 7 6 5 7 3 4 6 8 9 4 6 3 5 8 12 9 9 11 15 17 18 18 20 19 17 15 15 14 9 7 7 7 7 7 6 5 5 5
6 2 1 0 0 2 3 4 4 3 3 5 5 6 8 5 11 7 8 8 7 6 7 7 10 15 14 16 15 17 19 17 15 14 11 9 9 7 7 6 7 7 6 6
5 4 1 2 7 9 3 1 1 4 6 7 2 9 8 9 6 10 6 6 7 7 7 6 8 12 14 14 15 15 15 15 14 13 10 9 8 8 7 7 6 6 6 7
5 5 5 7 1 1 1 6 6 6 6 3 4 11 2 3 3 8 11 8 6 6 6 6 9 11 12 13 14 14 13 13 13 12 10 9 8 7 8 7 6 6 7 6
6 3 3 2 3 3 4 5 3 3 3 8 7 10 3 3 2 3 11 9 8 8 8 7 9 9 9 9 10 11 11 12 11 11 11 9 8 7 7 6 6 6 6 6
3 4 7 13 5 5 5 7 12 9 3 9 14 7 5 3 6 6 8 9 8 8 9 8 8 8 8 8 8 9 8 9 10 11 10 9 8 7 6 6 6 6 6 6
4 4 3 4 2 4 4 4 7 18 22 12 14 14 7 8 11 10 8 10 12 10 10 10 10 9 9 10 8 9 9 9 10 11 10 9 8 8 8 7 6 6 6 6
5 5 4 3 4 4 3 4 7 14 5 6 2 9 6 3 8 9 13 15 15 13 11 11 10 10 10 9 8 8 8 9 11 12 10 9 9 8 7 7 7 7 6 6
3 7 3 6 3 1 10 10 11 6 5 12 17 16 7 3 10 16 17 17 15 12 12 12 11 10 9 8 8 10 9 8 11 11 9 8 8 8 7 6 7 6 6 6
4 4 1 3 2 7 6 2 2 7 3 7 3 3 2 3 1 4 7 15 14 14 13 12 10 10 10 10 10 9 9 11 10 10 9 8 8 8 7 7 6 5 5 5
1 1 3 4 6 7 0 3 2 5 2 3 3 5 1 2 3 5 3 5 10 12 12 11 11 10 10 10 10 10 9 10 11 8 8 8 7 8 7 7 6 5 5 5
1 1 1 2 3 6 1 3 5 1 6 3 2 5 5 3 5 3 6 12 13 13 11 12 12 11 11 6 9 11 9 9 9 7 6 6 6 6 7 6 5 4 4 4
2 1 5 4 3 4 4 8 6 6 6 9 6 4 2 2 2 5 9 11 12 12 12 11 11 9 6 4 11 11 9 8 6 5 6 6 5 6 6 6 4 4 3 3
5 6 4 3 2 7 9 3 1 4 4 5 5 4 7 9 8 10 11 11 11 13 11 10 10 8 6 7 11 10 9 5 5 6 6 5 4 4 4 5 4 4 3 3
0 1 3 1 1 4 5 6 6 7 3 4 3 6 9 11 10 10 11 10 10 11 10 8 10 11 9 9 8 10 5 5 6 7 6 5 6 6 6 5 4 3 4 3
3 7 2 4 5 5 9 7 10 10 8 8 8 8 9 12 11 12 11 10 9 9 10 8 10 11 9 8 8 6 5 5 6 8 6 5 5 6 7 6 6 5 5 3
3 8 5 3 4 1 9 12 9 10 11 11 10 9 10 11 11 11 10 10 8 8 7 8 9 9 8 7 7 6 6 5 7 6 6 6 5 6 5 5 3 3 2 2
6 4 3 2 6 2 3 8 10 10 10 9 9 11 11 10 12 12 10 8 7 8 7 8 8 8 6 6 6 6 5 5 5 6 4 5 4 4 3 3 3 6 5 6
Wind_Direction
206 128 200 210 183 159 154 168 196 223 215 145 216 264 224 180 174 181 188 187 188 193 181 182 180 180 155 150 153 153 154 154 141 135 137 120 140 145 128 150 133 136 137 136
102 207 218 146 174 201 189 181 232 256 136 163 158 254 240 202 214 197 190 195 191 184 181 181 183 179 169 158 161 158 163 162 160 154 143 132 137 155 138 155 131 139 141 145
177 219 151 160 167 183 221 206 206 198 69 338 37 303 221 230 225 197 211 206 193 184 183 182 185 183 171 164 164 166 165 166 168 150 119 92 81 73 89 153 135 152 147 154
233 234 157 183 201 165 215 202 157 154 108 218 134 268 261 224 231 207 206 191 197 192 190 183 183 182 178 168 164 165 162 168 169 153 148 161 158 159 176 162 166 148 150 151
225 203 190 160 212 155 229 160 173 153 138 93 218 73 270 139 228 223 212 205 198 192 186 189 186 181 178 164 167 164 164 169 164 165 163 159 148 156 135 128 146 145 146 151
191 51 174 196 102 162 144 79 52 56 92 310 212 186 241 201 209 225 210 211 201 190 190 188 182 174 174 167 163 165 166 169 166 166 166 168 162 161 148 144 155 162 156 149
57 216 312 167 85 39 100 101 3 344 343 226 210 204 244 246 234 218 206 204 191 190 183 178 178 176 173 172 164 164 168 169 167 168 174 171 168 167 168 163 166 160 156 162
163 249 172 189 187 173 191 156 157 195 206 227 119 228 244 234 277 270 256 197 157 169 182 180 181 174 171 171 163 167 170 168 168 172 177 171 165 169 166 165 163 171 163 165
165 243 351 58 353 133 184 202 158 102 35 59 216 281 293 220 259 265 195 160 174 167 166 169 171 176 173 171 166 167 169 170 173 173 168 170 168 159 168 168 161 170 159 164
207 127 338 331 131 12 153 175 98 359 158 243 251 264 240 251 245 213 199 181 158 156 169 172 171 174 171 167 167 169 167 169 173 171 168 174 173 167 160 154 167 171 169 159
135 123 267 137 206 179 152 229 204 136 156 179 231 257 217 217 221 199 193 174 169 158 152 148 162 164 163 161 164 165 167 165 167 166 160 159 168 163 152 158 163 165 155 157
206 130 168 198 338 133 299 210 166 154 236 229 164 261 159 234 237 180 177 166 149 137 129 119 129 141 145 149 157 161 160 158 162 161 152 151 143 147 150 151 156 154 152 152
185 211 93 303 10 17 211 204 163 121 90 202 151 262 23 322 123 157 156 155 139 130 119 113 113 118 120 122 129 142 150 151 146 146 146 140 140 141 144 145 148 149 144 149
58 169 193 226 192 138 195 201 194 183 186 219 231 270 293 223 181 172 157 146 139 138 132 114 101 102 99 97 107 110 104 126 129 129 132 132 134 132 124 120 121 126 133 134
132 242 206 229 201 163 196 187 194 206 222 199 257 224 229 216 195 180 156 151 150 146 138 131 126 119 115 104 96 96 97 101 110 109 110 109 107 106 107 101 97 94 92 96
187 225 133 279 150 111 269 234 211 227 258 288 198 260 224 295 109 164 176 169 169 162 147 134 125 117 105 104 93 89 89 93 105 106 106 105 103 99 98 96 95 92 90 85
207 148 142 251 150 117 291 201 192 193 201 214 233 246 155 197 192 187 185 184 172 156 146 138 129 119 109 103 106 100 90 89 97 101 96 98 100 96 93 92 89 87 82 84
191 144 148 181 95 225 255 207 205 219 229 229 356 316 281 300 18 142 180 174 160 151 143 132 122 109 104 102 90 94 100 97 92 94 96 93 97 97 92 90 89 86 81 82
360 203 178 176 209 319 317 37 90 155 294 7 307 288 256 93 77 36 27 142 143 140 130 118 110 108 104 101 104 99 90 94 95 92 91 90 94 96 94 91 89 86 87 78
163 58 208 101 232 220 285 356 354 26 300 322 256 264 175 149 173 160 22 98 93 96 108 110 102 99 96 74 111 106 86 87 86 84 85 87 90 94 94 96 90 80 80 88
142 102 221 206 238 276 354 314 308 103 258 332 329 311 211 144 7 95 89 79 91 101 100 89 77 81 74 65 103 95 90 76 80 84 83 79 82 94 94 86 75 81 90 85
169 164 196 150 189 259 350 323 169 329 308 4 359 16 83 101 90 82 75 82 91 92 81 77 86 71 41 68 95 91 83 75 79 75 75 78 85 107 110 112 115 99 80 73
240 357 183 69 45 40 10 35 5 354 15 2 41 67 108 109 103 96 84 69 69 81 79 74 89 81 50 51 75 93 75 84 94 89 76 73 72 70 71 74 64 83 72 52
49 15 89 135 50 47 31 28 28 16 51 48 60 88 100 107 107 102 95 86 84 78 81 83 85 79 71 54 63 70 77 84 87 86 76 64 82 71 61 54 52 48 42 22
335 336 349 73 46 324 47 21 12 28 41 55 61 79 102 112 105 107 101 89 83 83 75 78 89 88 81 75 68 48 46 71 89 81 69 67 62 58 58 54 48 43 345 204
350 7 19 30 335 249 26 1 23 43 39 43 70 74 74 94 106 106 96 94 93 93 90 86 86 94 90 83 70 45 26 54 84 86 71 83 62 49 65 57 12 17 15 351